GW0392 Weather Reports


Display with metric or nautical units.
time (UTC)temp
F
wind
direction
speed
MPH
gust
MPH
rain 1hr
in
rain 24hr
in
rain mn
in
humidity
%
barometer
mb
20260507141826 56 229 0.0 0.0 0.00 0.30 0.30 99 1014.2
20260507141323 56 232 0.0 0.0 0.00 0.30 0.30 99 1013.9
20260507140819 56 229 0.0 0.0 0.00 0.30 0.30 99 1013.9
20260507140316 56 229 0.0 0.0 0.00 0.30 0.30 99 1014.1
20260507135814 56 229 0.0 0.0 0.00 0.30 0.30 99 1013.8
20260507135311 56 229 0.0 0.0 0.00 0.30 0.30 99 1014.0
20260507134808 57 229 0.0 0.0 0.00 0.30 0.30 99 1014.0
20260507134304 56 227 0.0 0.0 0.00 0.30 0.30 99 1013.6
20260507133800 55 229 0.0 0.0 0.00 0.30 0.30 99 1013.6
20260507133256 56 229 0.0 0.0 0.00 0.30 0.30 99 1013.8
20260507132754 56 227 0.0 0.0 0.00 0.30 0.30 99 1013.8
20260507132251 56 227 0.0 0.0 0.00 0.30 0.30 99 1013.7
20260507131748 55 229 0.0 0.0 0.00 0.30 0.30 99 1013.4
20260507131244 55 236 0.0 0.0 0.00 0.30 0.30 99 1013.3
20260507130741 55 232 0.0 0.0 0.00 0.30 0.30 99 1013.5
20260507130239 55 231 0.0 0.0 0.00 0.30 0.30 99 1013.4
20260507125737 55 229 0.0 0.0 0.00 0.30 0.30 99 1013.4
20260507125235 55 229 0.0 0.0 0.00 0.30 0.30 99 1013.0
20260507124731 55 229 0.0 0.0 0.00 0.30 0.30 99 1013.1
20260507124228 55 229 0.0 0.0 0.00 0.30 0.30 99 1013.2
20260507123727 55 236 0.0 0.0 0.00 0.30 0.30 99 1013.3
20260507123224 55 233 0.0 0.0 0.00 0.30 0.30 99 1013.1
20260507122719 55 228 0.0 0.0 0.00 0.30 0.30 99 1013.0
20260507122215 56 229 0.0 0.0 0.00 0.30 0.30 99 1013.1
20260507121710 56 233 0.0 0.0 0.00 0.30 0.30 99 1012.8
20260507121207 56 228 0.0 0.0 0.00 0.30 0.30 99 1012.9
20260507120703 56 229 0.0 0.0 0.00 0.30 0.30 99 1012.7
20260507120200 56 229 0.0 0.0 0.00 0.30 0.30 99 1012.7
20260507115656 56 229 0.0 0.0 0.00 0.30 0.30 99 1012.8
20260507115152 56 229 0.0 0.0 0.00 0.30 0.30 99 1012.5
20260507114648 56 228 0.0 0.0 0.00 0.30 0.30 99 1012.7
20260507114146 56 229 0.0 0.0 0.00 0.30 0.30 99 1012.9
20260507113643 56 228 0.0 0.0 0.00 0.30 0.30 99 1012.8
20260507113140 57 237 0.0 0.0 0.00 0.30 0.30 99 1012.7
20260507112638 57 227 0.0 0.0 0.00 0.30 0.30 99 1012.5
20260507112134 57 229 0.0 0.0 0.00 0.30 0.30 99 1012.4
20260507111631 57 231 0.0 0.0 0.00 0.30 0.30 99 1012.1
20260507111128 57 230 0.0 0.0 0.00 0.30 0.30 99 1012.1
20260507110624 58 230 0.0 0.0 0.00 0.30 0.30 99 1012.2
20260507110121 58 228 0.0 0.0 0.00 0.30 0.30 99 1012.2
20260507105618 58 227 0.0 0.0 0.00 0.30 0.30 99 1012.0
20260507105113 58 229 0.0 0.0 0.00 0.30 0.30 99 1011.9
20260507104611 58 229 0.0 0.0 0.00 0.30 0.30 99 1011.6
20260507104107 58 225 0.0 0.0 0.00 0.30 0.30 99 1011.7
20260507103604 58 227 0.0 0.0 0.00 0.30 0.30 99 1011.6
20260507103100 58 228 0.0 0.0 0.00 0.30 0.30 99 1011.7
20260507102557 57 231 0.0 0.0 0.00 0.30 0.30 99 1011.6
20260507102053 58 233 0.0 0.0 0.07 0.30 0.30 99 1011.3
20260507101548 59 229 0.0 0.0 0.07 0.30 0.30 99 1011.5
20260507101045 59 231 0.0 0.0 0.00 0.29 0.29 99 1011.6
20260507100542 59 237 0.0 0.0 0.00 0.29 0.29 99 1011.6
20260507100041 59 229 0.0 1.0 0.00 0.29 0.29 99 1011.7
20260507095538 59 231 0.0 0.0 0.00 0.29 0.29 99 1011.8
20260507095035 59 229 0.0 0.0 0.00 0.29 0.29 99 1012.0
20260507094531 59 228 0.0 0.0 0.00 0.29 0.29 99 1011.7
20260507094028 59 229 0.0 0.0 0.05 0.29 0.29 99 1011.8
20260507093525 59 229 0.0 0.0 0.05 0.29 0.29 99 1011.8
20260507093024 59 229 0.0 0.0 0.24 0.28 0.28 99 1011.8
20260507092520 59 227 0.0 0.0 0.35 0.27 0.27 99 1011.8
20260507092017 59 226 0.0 0.0 0.12 0.22 0.22 99 1011.9
20260507091514 59 251 1.0 1.0 0.12 0.21 0.21 99 1012.2
20260507091010 59 236 0.0 1.0 0.12 0.20 0.20 99 1012.1
20260507090505 59 227 0.0 0.0 0.05 0.19 0.19 99 1012.2
20260507090002 59 229 0.0 0.0 0.00 0.18 0.18 99 1011.8
20260507085500 59 229 0.0 0.0 0.07 0.18 0.18 99 1011.4
20260507084956 59 231 0.0 1.0 0.07 0.18 0.18 99 1011.1
20260507084453 59 228 0.0 0.0 0.07 0.17 0.17 99 1011.0
20260507083950 59 227 0.0 0.0 0.12 0.16 0.16 99 1011.4
20260507083446 59 231 0.0 1.0 0.47 0.16 0.16 99 1011.3
20260507082943 59 225 0.0 0.0 0.35 0.13 0.13 99 1012.1
20260507082439 59 223 0.0 0.0 0.00 0.07 0.07 99 1012.5
20260507081935 60 233 0.0 0.0 0.07 0.07 0.07 99 1012.1
20260507081432 60 230 0.0 0.0 0.07 0.07 0.07 99 1011.6
20260507080929 60 231 0.0 0.0 0.00 0.06 0.06 99 1011.9
20260507080425 61 230 0.0 0.0 0.00 0.06 0.06 99 1011.7
20260507075920 61 229 0.0 0.0 0.00 0.06 0.06 99 1011.7
20260507075417 61 227 0.0 0.0 0.00 0.06 0.06 99 1012.0
20260507074914 61 236 0.0 0.0 0.00 0.06 0.06 99 1011.8
20260507074410 61 229 0.0 0.0 0.00 0.06 0.06 99 1011.8
20260507073908 61 228 0.0 0.0 0.00 0.06 0.06 99 1011.4
20260507073404 61 230 0.0 0.0 0.00 0.06 0.06 99 1011.2
20260507072901 62 241 0.0 0.0 0.00 0.06 0.06 99 1011.4
20260507072359 62 228 0.0 0.0 0.00 0.06 0.06 99 1011.5
20260507071856 63 228 0.0 0.0 0.00 0.06 0.06 99 1011.6
20260507071353 64 231 0.0 0.0 0.00 0.06 0.06 99 1011.0
20260507070849 64 228 0.0 0.0 0.00 0.06 0.06 99 1011.0
20260507070347 64 227 0.0 0.0 0.00 0.06 0.06 99 1010.9
20260507065844 64 229 0.0 0.0 0.00 0.06 0.06 99 1011.1
20260507065340 64 226 0.0 0.0 0.00 0.06 0.06 99 1011.5
20260507064837 64 227 0.0 0.0 0.00 0.06 0.06 99 1011.7
20260507064336 64 226 0.0 0.0 0.00 0.06 0.06 99 1011.6
20260507063833 64 226 0.0 0.0 0.00 0.06 0.06 99 1011.7
20260507063330 64 229 0.0 0.0 0.00 0.06 0.06 99 1011.6
20260507062826 64 229 0.0 0.0 0.00 0.06 0.06 99 1011.7
20260507062324 64 226 0.0 0.0 0.00 0.06 0.06 99 1012.0
20260507061822 64 229 0.0 0.0 0.00 0.06 0.06 99 1012.2
20260507061319 64 229 0.0 0.0 0.00 0.06 0.06 99 1011.9
20260507060818 64 229 0.0 0.0 0.00 0.06 0.06 99 1011.8
20260507060314 64 229 0.0 0.0 0.00 0.06 0.06 99 1011.9
20260507055811 64 227 0.0 1.0 0.00 0.06 0.06 99 1012.3
20260507055306 64 225 0.0 0.0 0.00 0.06 0.06 99 1012.7
20260507054803 64 225 0.0 0.0 0.00 0.06 0.06 99 1012.5
20260507054259 64 229 0.0 0.0 0.00 0.06 0.06 99 1011.9
20260507053756 64 229 0.0 0.0 0.00 0.06 0.06 99 1012.1
20260507053254 64 223 0.0 0.0 0.00 0.06 0.06 99 1012.1
20260507052753 64 227 0.0 0.0 0.00 0.06 0.06 99 1011.8
20260507052249 64 229 0.0 0.0 0.00 0.06 0.06 99 1012.0
20260507051747 64 229 0.0 0.0 0.00 0.06 0.06 99 1011.9
20260507051243 64 229 0.0 0.0 0.00 0.06 0.06 99 1011.6
20260507050740 64 229 0.0 0.0 0.00 0.06 0.06 99 1011.4
20260507050237 64 225 0.0 0.0 0.00 0.06 0.06 99 1011.8
20260507045734 64 228 0.0 0.0 0.00 0.06 0.06 99 1011.7
20260507045230 64 229 0.0 0.0 0.00 0.06 0.06 99 1011.4
20260507044727 64 229 0.0 0.0 0.00 0.06 0.06 99 1011.6
20260507044224 64 221 0.0 0.0 0.00 0.06 0.06 99 1011.9
20260507043720 64 229 0.0 0.0 0.00 0.06 0.06 99 1012.3
20260507043217 64 228 0.0 0.0 0.00 0.06 0.06 99 1012.5
20260507042714 64 226 0.0 0.0 0.07 0.06 0.06 99 1012.7
20260507042208 64 227 0.0 0.0 0.07 0.06 0.06 99 1012.5
20260507041706 64 231 0.0 0.0 0.05 0.05 0.05 99 1012.5
20260507041202 64 228 0.0 0.0 0.24 0.05 0.05 99 1012.7
20260507040659 64 233 0.0 0.0 0.17 0.03 0.03 99 1012.5
20260507040155 64 235 0.0 0.0 0.00 0.00 0.00 99 1012.7
20260507035652 64 229 0.0 0.0 0.00 2.08 2.08 99 1012.4
20260507035148 64 236 0.0 0.0 0.00 2.08 2.08 99 1012.2
20260507034644 64 226 0.0 0.0 0.00 2.08 2.08 99 1012.7
20260507034142 64 225 0.0 0.0 0.00 2.08 2.08 99 1012.3
20260507033640 64 237 0.0 1.0 0.00 2.08 2.08 99 1012.7
20260507033137 64 226 0.0 0.0 0.00 2.08 2.08 99 1013.1
20260507032635 64 219 0.0 1.0 0.00 2.08 2.08 99 1013.2
20260507032130 64 218 0.0 0.0 0.00 2.08 2.08 99 1012.8
20260507031627 64 228 0.0 0.0 0.07 2.08 2.08 99 1012.9
20260507031124 64 228 0.0 0.0 0.07 2.08 2.08 99 1012.9
20260507030621 64 233 0.0 0.0 0.00 2.07 2.07 99 1012.5
20260507030119 64 225 0.0 0.0 0.00 2.07 2.07 99 1012.5
20260507025616 64 227 0.0 0.0 0.12 2.07 2.07 99 1012.7
20260507025113 64 225 0.0 0.0 0.35 2.07 2.07 99 1013.1
20260507024611 64 227 0.0 0.0 0.35 2.05 2.05 99 1013.0
20260507024108 64 226 0.0 0.0 0.24 2.01 2.01 99 1013.0
20260507023603 64 223 0.0 1.0 0.19 1.99 1.99 99 1013.1
20260507023101 64 226 0.0 0.0 0.07 1.97 1.97 99 1012.7
20260507022557 64 228 0.0 0.0 0.00 1.96 1.96 99 1012.7
20260507022052 64 228 0.0 0.0 0.00 1.96 1.96 99 1012.8
20260507021549 64 228 0.0 0.0 0.00 1.96 1.96 99 1012.4
20260507021045 64 228 0.0 0.0 0.00 1.96 1.96 99 1012.4
20260507020543 64 233 0.0 0.0 0.00 1.96 1.96 99 1012.7
20260507020039 64 228 0.0 0.0 0.00 1.96 1.96 99 1012.8
20260507015538 64 227 0.0 0.0 0.00 1.96 1.96 99 1012.8
20260507015035 64 223 0.0 0.0 0.00 1.96 1.96 99 1012.7
20260507014531 64 226 1.0 1.0 0.00 1.96 1.96 99 1012.3
20260507014027 64 227 0.0 0.0 0.00 1.96 1.96 99 1013.1
20260507013524 64 227 0.0 0.0 0.00 1.96 1.96 99 1013.0
20260507013021 64 225 0.0 0.0 0.00 1.96 1.96 99 1012.9
20260507012519 64 223 0.0 0.0 0.00 1.96 1.96 99 1012.7
20260507012015 64 227 0.0 0.0 0.00 1.96 1.96 99 1013.0
20260507011512 64 228 0.0 0.0 0.00 1.96 1.96 99 1013.3
20260507011008 64 228 0.0 0.0 0.00 1.96 1.96 99 1013.1
20260507010503 64 229 0.0 0.0 0.00 1.96 1.96 99 1012.9
20260507005959 64 227 0.0 0.0 0.00 1.96 1.96 99 1012.9
20260507005457 64 226 0.0 0.0 0.00 1.96 1.96 99 1012.5
20260507004953 64 221 0.0 0.0 0.00 1.96 1.96 99 1012.3
20260507004450 64 226 0.0 0.0 0.00 1.96 1.96 99 1012.2
20260507003948 64 224 0.0 0.0 0.05 1.96 1.96 99 1012.3
20260507003443 64 228 0.0 0.0 0.05 1.96 1.96 99 1012.8
20260507002938 64 228 0.0 0.0 0.00 1.95 1.95 99 1012.9
20260507002435 64 225 0.0 1.0 0.00 1.95 1.95 99 1012.5
20260507001932 64 222 0.0 1.0 0.00 1.95 1.95 99 1012.2
20260507001428 64 226 0.0 0.0 0.07 1.95 1.95 99 1012.1
20260507000926 64 233 1.0 1.0 0.07 1.95 1.95 99 1011.5
20260507000421 64 226 0.0 2.0 0.17 1.94 1.94 99 1011.8
20260506235917 64 213 1.0 1.0 0.35 1.94 1.94 99 1012.4
20260506235415 64 235 0.0 1.0 0.12 1.90 1.90 99 1013.4
20260506234910 64 226 0.0 1.0 0.00 1.88 1.88 99 1013.1
20260506234408 64 223 0.0 0.0 0.07 1.88 1.88 99 1012.7
20260506233905 64 229 0.0 0.0 0.07 1.88 1.88 99 1012.8
20260506233401 64 247 0.0 1.0 0.05 1.87 1.87 99 1012.8
20260506232858 64 215 1.0 1.0 0.12 1.87 1.87 99 1012.5
20260506232354 64 232 0.0 1.0 0.24 1.86 1.86 99 1013.0
20260506231850 64 231 0.0 1.0 0.59 1.85 1.85 99 1012.5
20260506231348 64 239 1.0 1.0 0.78 1.82 1.82 99 1012.7
20260506230845 64 223 0.0 2.0 0.52 1.74 1.74 99 1013.1
20260506230342 64 195 1.0 1.0 0.12 1.66 1.66 99 1012.9
20260506225838 64 220 1.0 1.0 0.07 1.64 1.64 99 1012.8
20260506225336 64 203 1.0 2.0 0.07 1.64 1.64 99 1012.2
20260506224833 64 228 0.0 0.0 0.05 1.63 1.63 99 1012.0
20260506224330 64 222 0.0 0.0 0.24 1.63 1.63 99 1012.2
20260506223826 64 225 0.0 2.0 0.24 1.62 1.62 99 1012.4
20260506223321 64 205 1.0 1.0 0.28 1.59 1.59 99 1012.2
20260506222819 64 224 0.0 2.0 0.42 1.58 1.58 99 1011.9
20260506222314 65 226 0.0 0.0 0.38 1.54 1.54 99 1011.6
20260506221812 65 226 0.0 0.0 0.59 1.51 1.51 99 1011.7
20260506221310 65 292 2.0 2.0 1.02 1.48 1.48 99 1012.0
20260506220807 65 227 0.0 0.0 0.66 1.39 1.39 99 1012.4
20260506220302 65 226 0.0 1.0 0.54 1.31 1.31 99 1012.1
20260506215759 65 223 0.0 0.0 0.61 1.28 1.28 99 1011.7
20260506215254 65 227 0.0 0.0 0.24 1.21 1.21 99 1011.7
20260506214750 65 225 0.0 0.0 0.05 1.18 1.18 99 1012.1
20260506214248 65 225 0.0 0.0 0.07 1.17 1.17 99 1011.7
20260506213746 65 229 0.0 0.0 0.00 1.16 1.16 99 1011.6
20260506213243 65 231 0.0 0.0 0.05 1.16 1.16 99 1011.8
20260506212740 65 223 0.0 1.0 0.05 1.16 1.16 99 1011.3
20260506212235 65 224 0.0 0.0 0.00 1.15 1.15 99 1011.5
20260506211725 65 226 0.0 0.0 0.00 1.15 1.15 99 1011.8
20260506211222 65 214 0.0 0.0 0.00 1.15 1.15 99 1011.5
20260506210719 65 228 0.0 0.0 0.14 1.15 1.15 99 1011.4
20260506210216 65 229 0.0 0.0 0.19 1.15 1.15 99 1012.2
20260506205713 65 224 1.0 2.0 0.12 1.13 1.13 99 1012.4
20260506205208 65 216 0.0 1.0 0.00 1.11 1.11 99 1012.4
20260506204706 66 227 0.0 0.0 0.05 1.11 1.11 99 1012.1
20260506204203 66 223 0.0 1.0 0.05 1.11 1.11 99 1012.2
20260506203701 66 250 1.0 1.0 0.00 1.10 1.10 99 1012.2
20260506203157 66 226 0.0 0.0 0.00 1.10 1.10 99 1012.3
20260506202655 66 224 0.0 1.0 0.00 1.10 1.10 99 1012.4
20260506202151 66 223 0.0 1.0 0.07 1.10 1.10 99 1012.3
20260506201648 66 220 1.0 2.0 0.59 1.09 1.09 99 1012.5
20260506201144 66 228 0.0 0.0 0.85 1.08 1.08 99 1012.4
20260506200641 66 231 1.0 9.0 0.24 0.98 0.98 99 1013.1
20260506200138 66 199 2.0 3.0 0.05 0.94 0.94 99 1012.8
20260506195635 67 212 1.0 1.0 0.05 0.94 0.94 99 1012.3
20260506195131 67 225 0.0 1.0 0.07 0.93 0.93 99 1012.4
20260506194629 67 237 0.0 1.0 0.07 0.93 0.93 99 1012.3
20260506194125 67 232 0.0 1.0 0.00 0.92 0.92 99 1012.7
20260506193623 67 213 1.0 2.0 0.00 0.92 0.92 99 1012.5
20260506193120 67 221 0.0 0.0 0.00 0.92 0.92 99 1012.7
20260506192616 67 222 0.0 1.0 0.05 0.92 0.92 99 1012.9
20260506192112 67 226 1.0 2.0 0.24 0.92 0.92 99 1012.8
20260506191609 68 226 0.0 0.0 0.42 0.90 0.90 99 1012.9
20260506191105 68 195 1.0 2.0 0.35 0.88 0.88 99 1013.2
20260506190603 68 186 1.0 1.0 0.05 0.83 0.83 99 1013.3
20260506190059 68 220 0.0 0.0 0.07 0.82 0.82 99 1012.9
20260506185557 67 228 0.0 0.0 0.07 0.82 0.82 99 1012.7
20260506185053 68 235 0.0 0.0 0.05 0.81 0.81 99 1012.5
20260506184551 68 206 1.0 2.0 0.05 0.81 0.81 99 1012.7
20260506184048 68 226 0.0 0.0 0.07 0.80 0.80 99 1012.3
20260506183543 68 227 0.0 1.0 0.12 0.80 0.80 99 1012.5
20260506183040 68 226 1.0 2.0 0.05 0.79 0.79 99 1013.1
20260506182538 68 216 1.0 1.0 0.07 0.78 0.78 98 1013.5
20260506182035 68 231 0.0 0.0 0.35 0.77 0.77 97 1013.1
20260506181533 68 224 0.0 1.0 0.92 0.76 0.76 97 1013.2
20260506181029 69 225 0.0 1.0 0.66 0.70 0.70 96 1013.4
20260506180526 69 228 0.0 0.0 0.12 0.61 0.61 94 1014.1
20260506180022 69 216 1.0 1.0 0.00 0.59 0.59 93 1013.6
20260506175519 69 220 0.0 1.0 0.00 0.59 0.59 93 1013.6
20260506175015 69 213 0.0 3.0 0.00 0.59 0.59 92 1013.7
20260506174514 70 220 2.0 3.0 0.00 0.59 0.59 92 1013.7
20260506174010 70 216 3.0 5.0 0.00 0.59 0.59 92 1013.3
20260506173508 70 235 0.0 0.0 0.00 0.59 0.59 92 1013.4
20260506173004 70 225 0.0 1.0 0.00 0.59 0.59 91 1013.4
20260506172502 70 185 3.0 7.0 0.00 0.59 0.59 91 1013.5
20260506171958 71 175 1.0 2.0 0.00 0.59 0.59 91 1013.1
20260506171455 70 173 2.0 6.0 0.00 0.59 0.59 90 1013.0
20260506170947 70 201 3.0 7.0 0.00 0.59 0.59 90 1013.1
20260506170443 70 227 1.0 5.0 0.00 0.59 0.59 90 1013.3
20260506165936 70 211 2.0 3.0 0.00 0.59 0.59 90 1013.1
20260506165434 71 217 2.0 8.0 0.00 0.59 0.59 90 1013.0
20260506164929 71 173 3.0 5.0 0.00 0.59 0.59 91 1012.8
20260506164426 70 221 1.0 2.0 0.00 0.59 0.59 92 1012.7
20260506163919 70 217 1.0 2.0 0.00 0.59 0.59 93 1012.9
20260506163419 69 183 3.0 6.0 0.00 0.59 0.59 94 1012.8
20260506162914 69 223 0.0 2.0 0.00 0.59 0.59 95 1012.7
20260506162412 68 210 2.0 3.0 0.00 0.59 0.59 96 1012.7
20260506161904 68 223 1.0 5.0 0.00 0.59 0.59 97 1012.9
20260506161402 68 189 3.0 3.0 0.00 0.59 0.59 97 1013.2
20260506160859 68 225 1.0 1.0 0.00 0.59 0.59 98 1013.0
20260506160356 68 220 0.0 0.0 0.00 0.59 0.59 98 1012.9
20260506155854 67 228 0.0 1.0 0.00 0.59 0.59 98 1012.9
20260506155350 67 220 0.0 5.0 0.00 0.59 0.59 99 1012.9
20260506153508 66 195 1.0 2.0 0.00 0.59 0.59 99 1013.3
20260506153005 66 213 0.0 2.0 0.00 0.59 0.59 99 1013.4
20260506152502 66 223 0.0 0.0 0.00 0.59 0.59 99 1013.7
20260506152000 66 231 0.0 0.0 0.00 0.59 0.59 99 1013.9
20260506151458 65 213 1.0 1.0 0.00 0.59 0.59 99 1013.6
20260506150955 65 217 0.0 0.0 0.00 0.59 0.59 99 1013.9
20260506150450 65 225 0.0 1.0 0.00 0.59 0.59 99 1013.7
20260506145948 65 221 2.0 2.0 0.00 0.59 0.59 99 1013.7
20260506145444 65 223 0.0 0.0 0.05 0.59 0.59 99 1013.7
20260506144942 65 165 1.0 3.0 0.12 0.59 0.59 99 1013.5
20260506144438 65 209 2.0 3.0 0.12 0.58 0.58 99 1013.0
20260506143937 65 227 0.0 0.0 0.12 0.57 0.57 99 1013.1
20260506143433 64 225 0.0 1.0 0.12 0.55 0.55 99 1014.1
20260506142932 64 231 0.0 0.0 0.31 0.55 0.55 99 1014.0
20260506142429 64 222 1.0 2.0 0.42 0.53 0.53 99 1014.4